{"data":{"norad_id":85010,"epoch":"2026-05-21T14:08:44.471040Z","epoch_age_seconds":372823,"freshness":"STALE","line1":"1 85010U          26141.58940360  .00000680  00000+0  75070-3 0  9998","line2":"2 85010  99.2385   3.5809 0024414 190.4098 196.8169 13.75409525625894","mean_motion":13.75409525,"eccentricity":0.0024414,"inclination_deg":99.2385,"raan_deg":3.5809,"arg_perigee_deg":190.4098,"mean_anomaly_deg":196.8169,"bstar":0.0007507,"rev_number":62589,"period_min":104.69609042441,"perigee_km":962.24914207829,"apogee_km":998.17849746106,"semimajor_km":7358.3508197697,"source":"CELESTRAK","updated_at":"2026-05-25T13:38:11.428562Z"}}